FW7515 Weather Reports


Display with metric or nautical units.
time (UTC)temp
F
wind
direction
speed
MPH
gust
MPH
rain 1hr
in
rain 24hr
in
rain mn
in
humidity
%
barometer
mb
20260831110030 82 209 2.0 4.0 0.00 0.00 0.00 65 1015.2
20260831105528 82 224 1.0 4.0 0.00 0.00 0.00 65 1015.1
20260831105026 82 210 3.0 4.0 0.00 0.00 0.00 65 1015.3
20260831104524 82 209 2.0 4.0 0.00 0.00 0.00 64 1015.3
20260831104022 82 223 2.0 6.0 0.00 0.00 0.00 64 1015.3
20260831103520 82 235 1.0 3.0 0.00 0.00 0.00 64 1015.4
20260831103018 83 203 2.0 6.0 0.00 0.00 0.00 63 1015.4
20260831102557 82 219 3.0 6.0 0.00 0.00 0.00 64 1015.3
20260831102016 82 223 2.0 6.0 0.00 0.00 0.00 63 1015.3
20260831101554 83 219 3.0 5.0 0.00 0.00 0.00 63 1015.3
20260831101033 83 230 2.0 6.0 0.00 0.00 0.00 63 1015.2
20260831100531 83 214 2.0 6.0 0.00 0.00 0.00 62 1015.3
20260831100029 83 218 2.0 5.0 0.00 0.00 0.00 62 1015.2
20260831095547 83 220 2.0 7.0 0.00 0.00 0.00 61 1015.1
20260831095025 83 223 1.0 4.0 0.00 0.00 0.00 61 1015.1
20260831094525 84 209 2.0 7.0 0.00 0.00 0.00 61 1015.1
20260831094021 83 226 2.0 6.0 0.00 0.00 0.00 61 1015.2
20260831093539 83 202 2.0 5.0 0.00 0.00 0.00 61 1015.2
20260831093017 83 226 2.0 5.0 0.00 0.00 0.00 61 1015.1
20260831092534 84 212 2.0 6.0 0.00 0.00 0.00 61 1015.0
20260831092032 84 221 2.0 6.0 0.00 0.00 0.00 60 1015.0
20260831091530 84 226 3.0 7.0 0.00 0.00 0.00 59 1014.8
20260831091027 84 222 2.0 8.0 0.00 0.00 0.00 59 1014.9
20260831090525 85 225 2.0 6.0 0.00 0.00 0.00 58 1014.9
20260831090023 85 212 2.0 5.0 0.00 0.00 0.00 58 1015.0
20260831085521 85 222 2.0 5.0 0.00 0.00 0.00 57 1014.9
20260831085018 85 222 3.0 9.0 0.00 0.00 0.00 57 1014.9
20260831084529 85 220 3.0 8.0 0.00 0.00 0.00 57 1014.8
20260831084034 85 231 3.0 6.0 0.00 0.00 0.00 57 1015.1
20260831083532 85 224 4.0 9.0 0.00 0.00 0.00 56 1015.1
20260831083031 85 216 4.0 9.0 0.00 0.00 0.00 57 1015.1
20260831082529 85 224 4.0 10.0 0.00 0.00 0.00 57 1015.2
20260831082028 85 213 3.0 9.0 0.00 0.00 0.00 57 1015.1
20260831081526 86 216 3.0 6.0 0.00 0.00 0.00 57 1015.1
20260831081025 86 220 4.0 7.0 0.00 0.00 0.00 57 1014.9
20260831080523 86 230 4.0 9.0 0.00 0.00 0.00 56 1014.9
20260831080041 86 217 5.0 10.0 0.00 0.00 0.00 56 1014.9
20260831075520 85 220 4.0 7.0 0.00 0.00 0.00 56 1014.7
20260831075037 85 220 3.0 6.0 0.00 0.00 0.00 55 1014.8
20260831074535 86 221 3.0 7.0 0.00 0.00 0.00 54 1014.7
20260831074033 86 219 3.0 6.0 0.00 0.00 0.00 53 1014.7
20260831073531 85 233 3.0 7.0 0.00 0.00 0.00 53 1014.8
20260831073109 85 213 3.0 6.0 0.00 0.00 0.00 53 1014.8
20260831072527 85 223 2.0 6.0 0.00 0.00 0.00 53 1014.6
20260831072025 85 215 2.0 5.0 0.00 0.00 0.00 52 1014.7
20260831071544 85 224 2.0 5.0 0.00 0.00 0.00 51 1014.7
20260831071022 85 231 2.0 4.0 0.00 0.00 0.00 51 1014.7
20260831070519 85 233 1.0 4.0 0.00 0.00 0.00 51 1014.7
20260831070017 85 210 2.0 5.0 0.00 0.00 0.00 51 1014.6
20260831065555 85 213 2.0 5.0 0.00 0.00 0.00 50 1014.7
20260831065033 85 210 2.0 4.0 0.00 0.00 0.00 50 1014.9
20260831064530 85 194 2.0 4.0 0.00 0.00 0.00 50 1014.9
20260831064028 85 183 1.0 4.0 0.00 0.00 0.00 49 1014.9
20260831063527 86 175 2.0 4.0 0.00 0.00 0.00 49 1014.9
20260831063025 85 192 1.0 4.0 0.00 0.00 0.00 49 1014.7
20260831062524 85 197 1.0 3.0 0.00 0.00 0.00 49 1014.8
20260831062104 85 172 1.0 4.0 0.00 0.00 0.00 49 1014.8
20260831061519 86 170 2.0 4.0 0.00 0.00 0.00 49 1014.7
20260831061017 86 197 1.0 4.0 0.00 0.00 0.00 49 1014.6
20260831060515 86 187 2.0 4.0 0.00 0.00 0.00 49 1014.7
20260831060033 86 185 2.0 4.0 0.00 0.00 0.00 49 1014.6
20260831055531 86 173 1.0 4.0 0.00 0.00 0.00 49 1014.7
20260831055030 86 190 1.0 3.0 0.00 0.00 0.00 49 1014.7
20260831054527 86 176 1.0 4.0 0.00 0.00 0.00 49 1014.7
20260831054025 87 184 2.0 4.0 0.00 0.00 0.00 49 1014.8
20260831053523 87 183 2.0 3.0 0.00 0.00 0.00 49 1014.8
20260831053041 87 177 1.0 4.0 0.00 0.00 0.00 50 1014.7
20260831052519 87 177 1.0 3.0 0.00 0.00 0.00 50 1014.6
20260831052017 87 198 1.0 3.0 0.00 0.00 0.00 49 1014.6
20260831051535 87 193 1.0 3.0 0.00 0.00 0.00 49 1014.4
20260831051053 87 192 1.0 3.0 0.00 0.00 0.00 49 1014.6
20260831050530 87 184 1.0 2.0 0.00 0.00 0.00 49 1014.6
20260831050049 88 188 2.0 2.0 0.00 0.00 0.00 48 1014.6
20260831045527 88 177 1.0 3.0 0.00 0.00 0.00 48 1014.6
20260831045025 88 191 1.0 2.0 0.00 0.00 0.00 48 1014.5
20260831044523 88 187 1.0 2.0 0.00 0.00 0.00 48 1014.4
20260831044021 88 175 1.0 2.0 0.00 0.00 0.00 48 1014.5
20260831043539 88 182 1.0 2.0 0.00 0.00 0.00 47 1014.6
20260831043015 88 179 1.0 2.0 0.00 0.00 0.00 47 1014.5
20260831042533 89 184 1.0 3.0 0.00 0.00 0.00 47 1014.3
20260831042050 89 188 1.0 2.0 0.00 0.00 0.00 47 1014.4
20260831041528 89 182 1.0 2.0 0.00 0.00 0.00 46 1014.5
20260831041025 89 198 1.0 3.0 0.00 0.00 0.00 46 1014.5
20260831040546 89 201 1.0 2.0 0.00 0.00 0.00 46 1014.3
20260831040021 89 179 1.0 2.0 0.00 0.00 0.00 45 1014.3
20260831035519 90 186 1.0 2.0 0.00 0.00 0.00 45 1014.5
20260831035017 90 194 1.0 3.0 0.00 0.00 0.00 45 1014.5
20260831034535 90 174 1.0 2.0 0.00 0.00 0.00 45 1014.4
20260831034033 90 208 1.0 2.0 0.00 0.00 0.00 45 1014.3
20260831033530 90 172 1.0 3.0 0.00 0.00 0.00 44 1014.4
20260831033028 90 179 1.0 3.0 0.00 0.00 0.00 44 1014.2
20260831032526 90 176 2.0 4.0 0.00 0.00 0.00 44 1014.2
20260831032023 90 182 0.0 2.0 0.00 0.00 0.00 44 1014.2
20260831031521 90 208 0.0 2.0 0.00 0.00 0.00 44 1014.2
20260831031018 90 178 1.0 3.0 0.00 0.00 0.00 43 1014.1
20260831030516 91 181 1.0 3.0 0.00 0.00 0.00 43 1014.1
20260831030034 91 179 1.0 3.0 0.00 0.00 0.00 42 1014.1
20260831025531 91 184 1.0 3.0 0.00 0.00 0.00 42 1014.1
20260831025049 91 197 1.0 3.0 0.00 0.00 0.00 41 1013.9
20260831024526 91 186 1.0 2.0 0.00 0.00 0.00 41 1013.9
20260831024023 91 183 1.0 2.0 0.00 0.00 0.00 41 1013.9
20260831023521 91 196 1.0 2.0 0.00 0.00 0.00 41 1013.9
20260831023038 91 184 1.0 3.0 0.00 0.00 0.00 41 1013.8
20260831022516 92 187 1.0 3.0 0.00 0.00 0.00 40 1013.7
20260831022034 92 198 1.0 2.0 0.00 0.00 0.00 40 1013.7
20260831021552 92 202 0.0 2.0 0.00 0.00 0.00 39 1013.5
20260831021029 92 203 1.0 2.0 0.00 0.00 0.00 39 1013.4
20260831020526 92 207 1.0 2.0 0.00 0.00 0.00 38 1013.3
20260831020024 93 202 1.0 2.0 0.00 0.00 0.00 38 1013.2
20260831015522 93 187 1.0 2.0 0.00 0.00 0.00 38 1013.1
20260831015040 93 193 1.0 2.0 0.00 0.00 0.00 37 1013.1
20260831014517 93 194 1.0 3.0 0.00 0.00 0.00 37 1013.1
20260831014034 94 189 1.0 3.0 0.00 0.00 0.00 37 1013.0
20260831013532 94 201 1.0 3.0 0.00 0.00 0.00 36 1013.0
20260831013029 94 198 2.0 4.0 0.00 0.00 0.00 36 1013.0
20260831012526 94 181 1.0 3.0 0.00 0.00 0.00 36 1012.9
20260831012023 94 215 1.0 3.0 0.00 0.00 0.00 36 1012.9
20260831011521 95 194 2.0 4.0 0.00 0.00 0.00 35 1013.0
20260831011018 95 188 2.0 4.0 0.00 0.00 0.00 35 1012.9
20260831010517 95 197 2.0 4.0 0.00 0.00 0.00 35 1012.8
20260831010034 95 179 2.0 4.0 0.00 0.00 0.00 35 1012.9
20260831005532 96 185 2.0 7.0 0.00 0.00 0.00 34 1012.8
20260831005050 96 175 2.0 5.0 0.00 0.00 0.00 34 1012.7
20260831004527 97 181 1.0 3.0 0.00 0.00 0.00 33 1012.8
20260831004025 97 204 2.0 5.0 0.00 0.00 0.00 33 1012.8
20260831003524 97 177 2.0 6.0 0.00 0.00 0.00 32 1012.7
20260831003020 98 189 2.0 6.0 0.00 0.00 0.00 32 1012.9
20260831002518 98 172 3.0 6.0 0.00 0.00 0.00 32 1013.0
20260831002015 98 187 3.0 5.0 0.00 0.00 0.00 32 1012.8
20260831001533 99 191 3.0 6.0 0.00 0.00 0.00 31 1012.8
20260831001030 99 184 3.0 9.0 0.00 0.00 0.00 31 1012.8
20260831000528 99 194 3.0 7.0 0.00 0.00 0.00 31 1012.9
20260831000025 100 172 3.0 6.0 0.00 0.00 0.00 31 1012.8
20260830235523 100 198 2.0 6.0 0.00 0.00 0.00 31 1013.0
20260830235021 100 192 3.0 6.0 0.00 0.00 0.00 31 1013.0
20260830234519 100 178 2.0 6.0 0.00 0.00 0.00 30 1013.0
20260830234017 100 154 3.0 6.0 0.00 0.00 0.00 29 1012.8
20260830233515 101 190 3.0 8.0 0.00 0.00 0.00 30 1013.0
20260830233034 101 184 3.0 6.0 0.00 0.00 0.00 29 1013.1
20260830232532 101 186 2.0 5.0 0.00 0.00 0.00 29 1013.1
20260830232030 101 141 3.0 7.0 0.00 0.00 0.00 29 1013.1
20260830231548 101 171 3.0 6.0 0.00 0.00 0.00 29 1012.9
20260830231027 102 182 3.0 6.0 0.00 0.00 0.00 28 1013.0
20260830230524 102 203 2.0 6.0 0.00 0.00 0.00 29 1013.1
20260830230042 101 133 3.0 8.0 0.00 0.00 0.00 29 1013.1
20260830225520 102 154 3.0 7.0 0.00 0.00 0.00 28 1013.1
20260830225018 102 188 3.0 8.0 0.00 0.00 0.00 29 1013.1
20260830224516 102 191 3.0 7.0 0.00 0.00 0.00 29 1013.0
20260830224034 102 204 4.0 8.0 0.00 0.00 0.00 29 1013.1
20260830223532 103 210 3.0 9.0 0.00 0.00 0.00 28 1013.1
20260830223030 103 213 3.0 6.0 0.00 0.00 0.00 28 1013.2
20260830222528 103 213 3.0 6.0 0.00 0.00 0.00 28 1013.1
20260830222046 103 219 3.0 7.0 0.00 0.00 0.00 28 1013.2
20260830221525 103 201 4.0 8.0 0.00 0.00 0.00 28 1013.0
20260830221043 103 171 3.0 11.0 0.00 0.00 0.00 28 1012.9
20260830220521 103 210 4.0 10.0 0.00 0.00 0.00 28 1013.0
20260830220019 102 115 3.0 5.0 0.00 0.00 0.00 28 1012.9
20260830215517 103 208 3.0 8.0 0.00 0.00 0.00 27 1013.0
20260830215015 103 165 4.0 8.0 0.00 0.00 0.00 28 1013.0
20260830214553 103 156 4.0 14.0 0.00 0.00 0.00 28 1013.1
20260830214032 103 196 3.0 8.0 0.00 0.00 0.00 27 1013.2
20260830213530 104 233 4.0 10.0 0.00 0.00 0.00 27 1013.2
20260830213028 103 212 3.0 7.0 0.00 0.00 0.00 27 1013.3
20260830212546 103 195 3.0 7.0 0.00 0.00 0.00 27 1013.3
20260830212024 102 162 5.0 12.0 0.00 0.00 0.00 29 1013.3
20260830211542 103 116 4.0 8.0 0.00 0.00 0.00 28 1013.2
20260830211021 103 146 4.0 10.0 0.00 0.00 0.00 28 1013.3
20260830210519 102 141 4.0 9.0 0.00 0.00 0.00 28 1013.4
20260830210017 102 134 4.0 10.0 0.00 0.00 0.00 28 1013.6
20260830205535 103 159 4.0 10.0 0.00 0.00 0.00 29 1013.7
20260830205033 103 205 4.0 9.0 0.00 0.00 0.00 29 1013.8
20260830204531 102 130 4.0 9.0 0.00 0.00 0.00 29 1013.8
20260830204030 102 112 5.0 9.0 0.00 0.00 0.00 30 1013.8
20260830203548 103 145 5.0 10.0 0.00 0.00 0.00 29 1014.0
20260830203026 103 156 3.0 5.0 0.00 0.00 0.00 29 1013.9
20260830202525 103 174 5.0 9.0 0.00 0.00 0.00 30 1014.0
20260830202023 103 198 4.0 8.0 0.00 0.00 0.00 30 1014.0
20260830201521 103 166 3.0 9.0 0.00 0.00 0.00 30 1014.3
20260830201039 103 176 3.0 8.0 0.00 0.00 0.00 30 1014.1
20260830200517 102 184 3.0 12.0 0.00 0.00 0.00 31 1014.4
20260830200035 102 130 5.0 13.0 0.00 0.00 0.00 31 1014.3
20260830195533 102 224 3.0 9.0 0.00 0.00 0.00 31 1014.5
20260830195032 102 208 4.0 10.0 0.00 0.00 0.00 31 1014.4
20260830194550 102 208 5.0 9.0 0.00 0.00 0.00 31 1014.5
20260830194047 102 158 4.0 9.0 0.00 0.00 0.00 31 1014.6
20260830193526 102 192 4.0 10.0 0.00 0.00 0.00 31 1014.6
20260830193024 102 211 5.0 10.0 0.00 0.00 0.00 31 1014.6
20260830192522 102 185 3.0 7.0 0.00 0.00 0.00 32 1014.7
20260830192020 101 218 4.0 11.0 0.00 0.00 0.00 32 1014.8
20260830191518 101 223 8.0 17.0 0.00 0.00 0.00 32 1014.8
20260830191016 101 217 5.0 15.0 0.00 0.00 0.00 32 1014.8
20260830190534 101 219 7.0 16.0 0.00 0.00 0.00 32 1014.9
20260830190032 101 215 4.0 13.0 0.00 0.00 0.00 32 1015.1
20260830185530 101 215 4.0 13.0 0.00 0.00 0.00 32 1015.1
20260830185028 101 223 7.0 14.0 0.00 0.00 0.00 32 1015.3
20260830184527 101 206 4.0 8.0 0.00 0.00 0.00 32 1015.2
20260830184025 101 155 4.0 9.0 0.00 0.00 0.00 32 1015.2
20260830183525 100 218 5.0 12.0 0.00 0.00 0.00 33 1015.4
20260830183021 101 225 5.0 15.0 0.00 0.00 0.00 33 1015.5
20260830182520 100 219 3.0 9.0 0.00 0.00 0.00 33 1015.4
20260830182018 100 221 5.0 14.0 0.00 0.00 0.00 34 1015.6
20260830181516 100 189 4.0 11.0 0.00 0.00 0.00 34 1015.7
20260830181054 100 183 4.0 9.0 0.00 0.00 0.00 34 1015.9
20260830180552 100 188 3.0 7.0 0.00 0.00 0.00 35 1015.8
20260830180030 100 194 5.0 11.0 0.00 0.00 0.00 34 1016.1
20260830175528 100 206 4.0 8.0 0.00 0.00 0.00 35 1016.2
20260830175026 99 218 5.0 15.0 0.00 0.00 0.00 35 1016.4
20260830174525 99 211 5.0 16.0 0.00 0.00 0.00 36 1016.5
20260830174023 99 198 4.0 11.0 0.00 0.00 0.00 36 1016.4
20260830173542 99 209 5.0 11.0 0.00 0.00 0.00 37 1016.4
20260830173020 99 208 5.0 12.0 0.00 0.00 0.00 37 1016.4
20260830172538 99 211 4.0 12.0 0.00 0.00 0.00 37 1016.5
20260830172016 98 194 4.0 9.0 0.00 0.00 0.00 38 1016.5
20260830171555 98 222 6.0 16.0 0.00 0.00 0.00 38 1016.6
20260830171033 98 221 5.0 13.0 0.00 0.00 0.00 38 1016.6
20260830170531 98 197 3.0 7.0 0.00 0.00 0.00 39 1016.7
20260830170029 98 211 4.0 12.0 0.00 0.00 0.00 39 1016.8
20260830165527 98 196 3.0 6.0 0.00 0.00 0.00 40 1016.9
20260830165026 98 207 4.0 9.0 0.00 0.00 0.00 40 1016.9
20260830164524 97 212 3.0 7.0 0.00 0.00 0.00 41 1017.0
20260830164042 97 215 4.0 10.0 0.00 0.00 0.00 42 1017.0
20260830163520 96 188 3.0 7.0 0.00 0.00 0.00 42 1017.1
20260830163018 96 193 3.0 9.0 0.00 0.00 0.00 44 1017.1
20260830162516 96 216 5.0 13.0 0.00 0.00 0.00 44 1017.2
20260830162054 95 224 3.0 10.0 0.00 0.00 0.00 44 1017.4
20260830161532 95 218 4.0 11.0 0.00 0.00 0.00 45 1017.3
20260830161030 95 217 3.0 10.0 0.00 0.00 0.00 46 1017.2
20260830160528 94 214 4.0 11.0 0.00 0.00 0.00 47 1017.2
20260830160026 94 228 3.0 7.0 0.00 0.00 0.00 47 1017.2
20260830155525 94 215 3.0 7.0 0.00 0.00 0.00 48 1017.2
20260830155023 93 218 6.0 14.0 0.00 0.00 0.00 49 1017.2
20260830154521 93 218 7.0 14.0 0.00 0.00 0.00 49 1017.2
20260830154040 93 218 5.0 11.0 0.00 0.00 0.00 49 1017.1
20260830153518 93 214 3.0 6.0 0.00 0.00 0.00 49 1017.2
20260830153016 92 219 5.0 11.0 0.00 0.00 0.00 50 1017.1
20260830152534 92 222 4.0 10.0 0.00 0.00 0.00 50 1017.1
20260830152032 92 223 4.0 11.0 0.00 0.00 0.00 50 1017.0
20260830151551 92 220 3.0 7.0 0.00 0.00 0.00 50 1017.1
20260830151028 92 218 4.0 8.0 0.00 0.00 0.00 50 1017.2
20260830150526 92 220 3.0 6.0 0.00 0.00 0.00 50 1017.0
20260830150025 91 220 3.0 6.0 0.00 0.00 0.00 51 1017.1
20260830145523 90 226 4.0 10.0 0.00 0.00 0.00 52 1017.1
20260830145020 90 221 5.0 11.0 0.00 0.00 0.00 52 1016.9
20260830144558 90 232 3.0 8.0 0.00 0.00 0.00 52 1017.0
20260830144016 89 215 4.0 11.0 0.00 0.00 0.00 53 1017.1
20260830143534 89 219 6.0 15.0 0.00 0.00 0.00 53 1017.1
20260830143032 88 224 5.0 9.0 0.00 0.00 0.00 54 1017.0
20260830142531 88 214 5.0 12.0 0.00 0.00 0.00 55 1017.1
20260830142028 87 217 4.0 10.0 0.00 0.00 0.00 55 1017.1
20260830141527 87 217 5.0 11.0 0.00 0.00 0.00 56 1017.1
20260830141024 87 222 5.0 10.0 0.00 0.00 0.00 57 1017.1
20260830140522 86 225 3.0 9.0 0.00 0.00 0.00 57 1017.0
20260830140020 86 224 4.0 10.0 0.00 0.00 0.00 59 1017.1
20260830135518 86 217 5.0 10.0 0.00 0.00 0.00 59 1017.1
20260830135017 85 225 4.0 10.0 0.00 0.00 0.00 60 1017.1
20260830134555 85 218 4.0 9.0 0.00 0.00 0.00 61 1017.0
20260830134033 85 213 4.0 9.0 0.00 0.00 0.00 62 1017.1
20260830133531 84 222 3.0 7.0 0.00 0.00 0.00 62 1017.1
20260830133029 84 226 3.0 6.0 0.00 0.00 0.00 63 1016.8
20260830132527 84 213 3.0 6.0 0.00 0.00 0.00 64 1016.9
20260830132025 84 252 3.0 6.0 0.00 0.00 0.00 64 1016.9
20260830131523 83 212 2.0 6.0 0.00 0.00 0.00 65 1016.7
20260830131021 83 216 3.0 6.0 0.00 0.00 0.00 65 1016.7
20260830130520 83 212 3.0 8.0 0.00 0.00 0.00 66 1016.5
20260830130018 82 223 3.0 9.0 0.00 0.00 0.00 66 1016.3
20260830125516 82 228 2.0 6.0 0.00 0.00 0.00 67 1016.3
20260830125035 82 244 2.0 6.0 0.00 0.00 0.00 67 1016.4
20260830124532 82 209 3.0 5.0 0.00 0.00 0.00 68 1016.2
20260830124030 81 207 2.0 5.0 0.00 0.00 0.00 68 1016.2
20260830123528 81 229 2.0 4.0 0.00 0.00 0.00 69 1016.2
20260830123026 81 226 2.0 4.0 0.00 0.00 0.00 69 1016.2
20260830122525 80 215 2.0 3.0 0.00 0.00 0.00 69 1016.2
20260830122023 80 198 2.0 4.0 0.00 0.00 0.00 70 1016.2
20260830121521 80 173 1.0 4.0 0.00 0.00 0.00 70 1016.2
20260830121019 80 208 2.0 4.0 0.00 0.00 0.00 70 1016.2
20260830120517 80 287 1.0 3.0 0.00 0.00 0.00 69 1016.0
20260830120035 80 327 1.0 3.0 0.00 0.00 0.00 69 1016.0
20260830115533 81 217 1.0 3.0 0.00 0.00 0.00 68 1016.0
20260830115053 81 177 1.0 4.0 0.00 0.00 0.00 68 1015.8
20260830114529 81 198 2.0 4.0 0.00 0.00 0.00 68 1015.7
20260830114027 81 200 2.0 4.0 0.00 0.00 0.00 68 1015.7
20260830113526 81 222 1.0 3.0 0.00 0.00 0.00 67 1015.8
20260830113024 81 206 2.0 5.0 0.00 0.00 0.00 67 1015.7
20260830112522 82 198 2.0 3.0 0.00 0.00 0.00 66 1015.7
20260830112041 82 207 1.0 3.0 0.00 0.00 0.00 65 1015.5
20260830111519 82 199 2.0 4.0 0.00 0.00 0.00 65 1015.4
20260830111016 82 248 2.0 5.0 0.00 0.00 0.00 65 1015.4
20260830110534 82 300 2.0 5.0 0.00 0.00 0.00 65 1015.3